Terminal Aerodrome Forecast
Issued by NWS

Home | Current Version | Previous Version | Text Only | Print | Product List | Glossary On
Versions: 1 2 3 4 5 6 7 8 9 10 11 12 13 14 15 16 17 18
000
FTUS46 KMTR 231152
TAFSNS
TAF
KSNS 231152Z 2312/2412 25010KT P6SM SHRA BKN030 OVC050
     FM231900 16006KT P6SM -SHRA BKN080
     FM232000 27010KT P6SM BKN100
     FM240400 VRB03KT P6SM BKN050=

USA.gov is the U.S. government's official web portal to all federal, state and local government web resources and services.